Change the Weather History Date:

Saturday, November 2, 2013

  Actual Average Record
Temperature  
Mean Temperature 59 °F 59 °F  
Max Temperature 74 °F 70 °F 80 °F (2010)
Min Temperature 43 °F 47 °F 38 °F (2002)
Degree Days  
Heating Degree Days 6    
Month to date heating degree days 13  
Since 1 July heating degree days 153  
Cooling Degree Days 0    
Month to date cooling degree days 0  
Year to date cooling degree days 826  
Growing Degree Days 8 (Base 50)    
Moisture  
Dew Point 44 °F    
Average Humidity 57    
Maximum Humidity 83    
Minimum Humidity 31    
Precipitation  
Precipitation 0.00 in - 0.32 in (2006)
Month to date precipitation 0.00  
Year to date precipitation 2.73  
Since 1 July precipitation 0.67  
Sea Level Pressure  
Sea Level Pressure 29.93 in    
Wind  
Wind Speed 5 mph (South)    
Max Wind Speed 16 mph    
Max Gust Speed 21 mph    
Visibility 10 miles    
Events      
T = Trace of Precipitation, MM = Missing Value Source: NWS Daily Summary

Daily Weather History Graph

Daily Weather History Graph

Search for Another Location

Airport or City:

Trip Planner

Search our weather history database for the weather conditions in past years. The results will help you decide how hot, cold, wet, or windy it might be!

Date:

Astronomy

Nov. 02, 2013 Rise Set
Actual Time 7:35 AM PDT 6:07 PM PDT
Civil Twilight 7:07 AM PDT 6:35 PM PDT
Nautical Twilight 6:36 AM PDT 7:06 PM PDT
Astronomical Twilight 6:06 AM PDT 7:36 PM PDT
Moon 6:39 AM PDT 5:42 PM PDT
Length of Visible Light 11h 27m
Length of Day
10h 32m
Waning Crescent, 1% of the Moon is Illuminated
Nov 2
Waning Crescent
Nov 3
New
Nov 9
First Quarter
Nov 17
Full
Nov 25
Last Quarter

Hourly Weather History & Observations

Time (PDT) Temp. Windchill Dew Point Humidity Pressure Visibility Wind Dir Wind Speed Gust Speed Precip Events Conditions
12:53 AM 50.0 °F - 42.1 °F 74% 29.99 in 10.0 mi Calm Calm - N/A   Clear
1:53 AM 50.0 °F - 42.1 °F 74% 29.99 in 10.0 mi South 3.5 mph - N/A   Clear
2:53 AM 48.0 °F - 41.0 °F 77% 29.98 in 10.0 mi SE 4.6 mph - N/A   Clear
3:53 AM 46.9 °F - 41.0 °F 80% 29.97 in 10.0 mi SSE 4.6 mph - N/A   Clear
4:53 AM 46.0 °F - 39.9 °F 79% 29.96 in 10.0 mi Calm Calm - N/A   Clear
5:53 AM 46.9 °F - 39.9 °F 77% 29.96 in 10.0 mi SE 3.5 mph - N/A   Clear
6:53 AM 45.0 °F - 39.9 °F 82% 29.97 in 10.0 mi Calm Calm - N/A   Clear
7:53 AM 44.1 °F 41.5 °F 39.9 °F 85% 29.97 in 10.0 mi SE 4.6 mph - N/A   Clear
8:53 AM 50.0 °F - 41.0 °F 71% 29.98 in 10.0 mi SE 5.8 mph - N/A   Clear
9:53 AM 57.0 °F - 39.9 °F 53% 29.97 in 10.0 mi Calm Calm - N/A   Clear
10:53 AM 63.0 °F - 46.0 °F 54% 29.97 in 10.0 mi NW 4.6 mph - N/A   Clear
11:53 AM 66.9 °F - 46.9 °F 49% 29.95 in 10.0 mi Variable 3.5 mph - N/A   Clear
12:53 PM 71.1 °F - 43.0 °F 36% 29.92 in 10.0 mi WNW 11.5 mph - N/A   Clear
1:53 PM 71.1 °F - 42.1 °F 35% 29.91 in 10.0 mi WNW 11.5 mph - N/A   Clear
2:53 PM 73.0 °F - 41.0 °F 31% 29.88 in 10.0 mi West 6.9 mph - N/A   Clear
3:53 PM 73.0 °F - 41.0 °F 31% 29.87 in 10.0 mi West 9.2 mph - N/A   Clear
4:53 PM 69.1 °F - 44.1 °F 40% 29.87 in 10.0 mi WSW 12.7 mph - N/A   Clear
5:53 PM 66.0 °F - 48.9 °F 54% 29.85 in 10.0 mi SW 8.1 mph - N/A   Clear
6:53 PM 63.0 °F - 48.9 °F 60% 29.86 in 10.0 mi SW 8.1 mph - N/A   Clear
7:53 PM 59.0 °F - 50.0 °F 72% 29.87 in 10.0 mi SE 3.5 mph - N/A   Clear
8:53 PM 55.9 °F - 48.9 °F 77% 29.88 in 10.0 mi SSE 5.8 mph - N/A   Clear
9:53 PM 55.0 °F - 48.9 °F 80% 29.89 in 10.0 mi South 6.9 mph - N/A   Clear
10:53 PM 53.1 °F - 48.0 °F 83% 29.91 in 10.0 mi SE 3.5 mph - N/A   Clear
11:53 PM 53.1 °F - 46.9 °F 80% 29.93 in 10.0 mi Calm Calm - N/A   Clear